Location: Dortmund
(51.5019°N, 7.6520°E)
Time: 05:27:12
(UTC+01:00)

ISS - Pass Details

Date: 11 November 2017
Orbit: 401 x 407 km, 51.6° (Epoch: 18 November)

Event Time Altitude Azimuth Distance (km) Brightness Sun altitude
Exits shadow 05:10:16 42° 91° (E) 588 -2.6 -23.4°
Drops below altitude 10° 05:12:33 10° 94° (E) 1,456 0.1 -23.0°
Sets 05:14:37 0° 95° (E) 2,315 1.5 -22.7°
